(1) Ceres
ephemeris date magn radius delta ra dec elong phase
Today9 May 20259.32.983 AU3.501 AU00h03m-09°18'51.7°15.4°
Opposition2 Oct 20257.62.939 AU1.961 AU00h57m-10°13'164.9°5.1°
(1) Ceres - 2025-05-09
astro.vanbuitenen.nl


 
-1 year
-1 month
-1 day
Now
+1 day
+1 month
+1 year

The interactive orbit chart above shows the body's path through the solar system and its position at the given date. Green and blue lines are shown perpendicular to the ecliptic plane: Green if the path is above the ecliptic plane, blue if it is below. (Left-click and drag to rotate the view; Right-click and drag to move the view; Use scroll wheel to zoom in our out.)

The orbital elements of Ceres are:

            e (Eccentricity)                : 0.0794013
            a (Semimajor axis)              : 2.7660512
            i (Inclination)                 : 10.58780
            Ω (Longitude of ascending node) : 80.25221
            ω (Argument of perihelion)      : 73.27343
            M (Mean anomaly)                : 188.70269
            Epoch                           : 2025 May 05

            L (Longitude of perihelion)     : 153.25251
            B (Latitude of perihelion)      : 10.13498
            P (Orbital period in years)     : 4.60            
        

The light curve chart below shows the estimated development of the minor planet's magnitude.


The all-sky chart below shows the path of the minor planet over the same period as the light curve. The current position is marked yellow.





The following chart shows the path of the minor planet in the next few days. The field of view is optimized for (~10x50) binoculars and finderscopes. A more printer-friendly version of the same chart can be found below.




Ephemerides:
Date       Time       RA (2000)    DEC (2000)    delta   radius  elong  phase   PA    magn
2025-05-09 00:00 UT   00 03 41.3   -09 18 55     3.501    2.983   51.7   15.4   239    9.3 
2025-05-09 21:53 UT   00 04 50.8   -09 13 15     3.491    2.983   52.3   15.5   239    9.3 
2025-05-10 00:00 UT   00 04 57.5   -09 12 42     3.491    2.983   52.4   15.5   239    9.3 
2025-05-11 00:00 UT   00 06 13.3   -09 06 33     3.480    2.983   53.0   15.7   239    9.3 
2025-05-12 00:00 UT   00 07 28.7   -09 00 27     3.469    2.983   53.6   15.8   240    9.3 
2025-05-13 00:00 UT   00 08 43.8   -08 54 24     3.458    2.983   54.2   16.0   240    9.3 
2025-05-14 00:00 UT   00 09 58.6   -08 48 25     3.447    2.982   54.9   16.1   240    9.3 
2025-05-15 00:00 UT   00 11 13.0   -08 42 29     3.436    2.982   55.5   16.2   240    9.3 
2025-05-16 00:00 UT   00 12 27.1   -08 36 38     3.425    2.982   56.1   16.3   240    9.3 
2025-05-17 00:00 UT   00 13 40.8   -08 30 50     3.414    2.982   56.8   16.5   240    9.3 
2025-05-18 00:00 UT   00 14 54.1   -08 25 05     3.402    2.982   57.4   16.6   240    9.3 
2025-05-19 00:00 UT   00 16 07.1   -08 19 25     3.391    2.982   58.0   16.7   240    9.3 
2025-05-20 00:00 UT   00 17 19.6   -08 13 48     3.380    2.982   58.7   16.9   241    9.3 
2025-05-21 00:00 UT   00 18 31.8   -08 08 16     3.368    2.981   59.3   17.0   241    9.2 
2025-05-22 00:00 UT   00 19 43.6   -08 02 47     3.356    2.981   60.0   17.1   241    9.2 
2025-05-23 00:00 UT   00 20 55.0   -07 57 23     3.345    2.981   60.6   17.2   241    9.2 
2025-05-24 00:00 UT   00 22 06.0   -07 52 03     3.333    2.981   61.2   17.3   241    9.2 
2025-05-25 00:00 UT   00 23 16.6   -07 46 47     3.321    2.981   61.9   17.4   241    9.2 
2025-05-26 00:00 UT   00 24 26.7   -07 41 36     3.309    2.981   62.5   17.6   241    9.2 
2025-05-27 00:00 UT   00 25 36.4   -07 36 29     3.297    2.981   63.2   17.7   242    9.2 
2025-05-28 00:00 UT   00 26 45.7   -07 31 26     3.285    2.980   63.8   17.8   242    9.2 
2025-05-29 00:00 UT   00 27 54.5   -07 26 28     3.273    2.980   64.5   17.9   242    9.2 
2025-05-30 00:00 UT   00 29 02.9   -07 21 35     3.260    2.980   65.2   18.0   242    9.2 
2025-05-31 00:00 UT   00 30 10.8   -07 16 47     3.248    2.980   65.8   18.1   242    9.2 
2025-06-01 00:00 UT   00 31 18.3   -07 12 03     3.236    2.980   66.5   18.2   242    9.2 
2025-06-02 00:00 UT   00 32 25.3   -07 07 24     3.223    2.979   67.1   18.3   242    9.2 
2025-06-03 00:00 UT   00 33 31.8   -07 02 50     3.211    2.979   67.8   18.4   242    9.2 
2025-06-04 00:00 UT   00 34 37.8   -06 58 20     3.198    2.979   68.5   18.5   243    9.2 
2025-06-05 00:00 UT   00 35 43.3   -06 53 56     3.186    2.979   69.1   18.6   243    9.2 


    Terminology:
            
    delta:  distance between minor planet and earth in AU
    radius: distance between minor planet and sun in AU
    magn:   magnitude (brightness) estimate    
    ra:     right ascension in hours (24h = 360deg)
    dec:    declination in degrees
    elong:  elongation in degrees (angle sun-earth-minor planet)    
    phase:  phase angle in degrees (angle sun-minor planet-earth)        
    AU:     Astronomical Unit (mean distance between earth and sun: 149597870.7 km
    

Orbital elements provided by the MPC (Minor Planet Center).
Calculations by a modified version of AAPlus, a C# implementation of the AA+ project by PJ Naughter from the algorithms presented in the book "Astronomical Algorithms" by Jean Meeus.
NGC2000 dso catalog and star labels from VizieR as provided by the Strasbourg astronomical Data Center.
Tycho2 catalog from the ESO archive.